When you browse on this site, cookies collect data to enhance your experience and personalize the content and advertising you see.
Visit our Privacy Policy to learn more. By continuing to use the site, you agree to this use of cookies and data.
  • In Hungary
  • List of Countries
  • For 7 days
  • Water Temperature
  • Weather Map
  • News
  • Weather Widgets
  • user-avatar
    Login

    Hourly Weather Malynyshche

    Today, 18 November, Monday

    Time Temperature Precipitation Wind Pressure Humidity
    00:00 +6°C° 0 mm 7 mps 729 mmHg 76%
    01:00 +6°C° 0 mm 7 mps 729 mmHg 75%
    02:00 +5°C° 0 mm 6 mps 729 mmHg 76%
    03:00 +5°C° 0 mm 6 mps 728 mmHg 75%
    04:00 +5°C° 0 mm 6 mps 728 mmHg 75%
    05:00 +4°C° 0 mm 7 mps 728 mmHg 75%
    06:00 +4°C° 0 mm 7 mps 728 mmHg 76%
    07:00 +4°C° 0 mm 7 mps 728 mmHg 77%
    08:00 +4°C° 0 mm 7 mps 728 mmHg 77%
    09:00 +5°C° 0 mm 7 mps 728 mmHg 74%
    10:00 +6°C° 0 mm 8 mps 728 mmHg 72%
    11:00 +7°C° 0 mm 8 mps 728 mmHg 69%
    12:00 +7°C° 0 mm 8 mps 728 mmHg 69%
    13:00 +9°C° 0 mm 8 mps 728 mmHg 69%
    14:00 +9°C° 0 mm 8 mps 728 mmHg 68%
    15:00 +8°C° 0 mm 7 mps 728 mmHg 73%
    16:00 +8°C° 0 mm 6 mps 728 mmHg 78%
    17:00 +7°C° 0 mm 6 mps 728 mmHg 82%
    18:00 +7°C° 0 mm 5 mps 728 mmHg 85%
    19:00 +7°C° 0 mm 5 mps 729 mmHg 87%
    20:00 +7°C° 0 mm 4 mps 729 mmHg 89%
    21:00 +7°C° 0 mm 4 mps 729 mmHg 90%
    22:00 +7°C° 0 mm 4 mps 730 mmHg 90%
    23:00 +8°C° 0 mm 3 mps 730 mmHg 91%

    Tomorrow, 19 November, Tuesday

    Time Temperature Precipitation Wind Pressure Humidity
    00:00 +8°C° 0 mm 3 mps 730 mmHg 90%
    01:00 +8°C° 0 mm 3 mps 731 mmHg 90%
    02:00 +8°C° 0 mm 3 mps 731 mmHg 89%
    03:00 +8°C° 0 mm 3 mps 731 mmHg 89%
    04:00 +8°C° 0 mm 2 mps 731 mmHg 88%
    05:00 +7°C° 0 mm 2 mps 731 mmHg 88%
    06:00 +7°C° 0 mm 2 mps 732 mmHg 87%
    07:00 +7°C° 0 mm 2 mps 732 mmHg 87%
    08:00 +8°C° 0 mm 1 mps 732 mmHg 87%
    09:00 +9°C° 0 mm 1 mps 732 mmHg 81%
    10:00 +11°C° 0 mm 1 mps 733 mmHg 76%
    11:00 +12°C° 0 mm 1 mps 733 mmHg 71%
    12:00 +12°C° 0 mm 2 mps 733 mmHg 69%
    13:00 +13°C° 0 mm 2 mps 733 mmHg 67%
    14:00 +14°C° 0 mm 2 mps 733 mmHg 65%
    15:00 +13°C° 0 mm 2 mps 733 mmHg 71%
    16:00 +12°C° 0 mm 2 mps 732 mmHg 76%
    17:00 +9°C° 0 mm 3 mps 732 mmHg 82%
    18:00 +9°C° 0 mm 3 mps 732 mmHg 85%
    19:00 +9°C° 0 mm 3 mps 732 mmHg 88%
    20:00 +8°C° 0 mm 2 mps 732 mmHg 91%
    21:00 +8°C° 0 mm 3 mps 733 mmHg 92%
    22:00 +8°C° 0 mm 3 mps 733 mmHg 93%
    23:00 +8°C° 0 mm 3 mps 733 mmHg 94%

    Day after tomorrow, 20 November, Wednesday

    Time Temperature Precipitation Wind Pressure Humidity
    00:00 +8°C° 0 mm 3 mps 733 mmHg 94%
    01:00 +8°C° 0 mm 3 mps 733 mmHg 95%
    02:00 +7°C° 0 mm 3 mps 732 mmHg 96%
    03:00 +8°C° 0 mm 3 mps 732 mmHg 96%
    04:00 +7°C° 0 mm 4 mps 732 mmHg 96%
    05:00 +7°C° 0 mm 4 mps 732 mmHg 97%
    06:00 +7°C° 0 mm 4 mps 732 mmHg 96%
    07:00 +8°C° 0 mm 4 mps 732 mmHg 95%
    08:00 +8°C° 0 mm 4 mps 732 mmHg 95%
    09:00 +9°C° 0 mm 5 mps 732 mmHg 92%
    10:00 +9°C° 0 mm 5 mps 732 mmHg 89%
    11:00 +9°C° 0 mm 5 mps 732 mmHg 86%
    12:00 +10°C° 0 mm 6 mps 732 mmHg 81%
    13:00 +11°C° 0 mm 6 mps 732 mmHg 77%
    14:00 +11°C° 0 mm 6 mps 731 mmHg 72%
    15:00 +11°C° 0 mm 6 mps 731 mmHg 74%
    16:00 +10°C° 0 mm 6 mps 731 mmHg 76%
    17:00 +10°C° 0 mm 6 mps 730 mmHg 78%
    18:00 +9°C° 0 mm 6 mps 731 mmHg 77%
    19:00 +9°C° 0 mm 7 mps 731 mmHg 76%
    20:00 +9°C° 0 mm 7 mps 731 mmHg 76%
    21:00 +8°C° 0 mm 7 mps 731 mmHg 75%
    22:00 +8°C° 0 mm 7 mps 731 mmHg 74%
    23:00 +6°C° 0 mm 8 mps 730 mmHg 74%

    21 November, Thursday

    Time Temperature Precipitation Wind Pressure Humidity
    00:00 +6°C° 0 mm 8 mps 731 mmHg 73%
    01:00 +6°C° 0 mm 8 mps 731 mmHg 71%
    02:00 +6°C° 0 mm 8 mps 731 mmHg 70%
    03:00 +5°C° 0.2 mm 8 mps 731 mmHg 73%
    04:00 +5°C° 0.2 mm 8 mps 731 mmHg 77%
    05:00 +3°C° 0.2 mm 9 mps 731 mmHg 80%
    06:00 +3°C° 0.4 mm 9 mps 731 mmHg 82%
    07:00 +4°C° 0.4 mm 8 mps 731 mmHg 83%
    08:00 +4°C° 0.4 mm 8 mps 731 mmHg 85%
    09:00 +4°C° 0.1 mm 8 mps 732 mmHg 84%
    10:00 +4°C° 0.1 mm 8 mps 732 mmHg 83%
    11:00 +4°C° 0.1 mm 8 mps 732 mmHg 81%
    12:00 +4°C° 0 mm 8 mps 732 mmHg 80%
    13:00 +4°C° 0 mm 8 mps 732 mmHg 78%
    14:00 +2°C° 0 mm 8 mps 732 mmHg 76%
    15:00 +2°C° 0 mm 8 mps 732 mmHg 78%
    16:00 +2°C° 0 mm 8 mps 732 mmHg 79%
    17:00 +1°C° 0 mm 8 mps 732 mmHg 80%
    18:00 +2°C° 0 mm 8 mps 732 mmHg 80%
    19:00 +2°C° 0 mm 8 mps 733 mmHg 80%
    20:00 +2°C° 0 mm 8 mps 733 mmHg 80%
    21:00 +2°C° 0 mm 8 mps 733 mmHg 80%
    22:00 +2°C° 0 mm 8 mps 733 mmHg 79%
    23:00 +2°C° 0 mm 8 mps 733 mmHg 78%

    22 November, Friday

    Time Temperature Precipitation Wind Pressure Humidity
    00:00 +2°C° 0 mm 8 mps 733 mmHg 78%
    01:00 +1°C° 0 mm 8 mps 733 mmHg 77%
    02:00 +1°C° 0 mm 8 mps 733 mmHg 77%
    03:00 0°C° 0 mm 8 mps 733 mmHg 77%
    04:00 0°C° 0 mm 7 mps 733 mmHg 76%
    05:00 -1°C° 0 mm 7 mps 733 mmHg 76%
    06:00 -1°C° 0 mm 7 mps 734 mmHg 75%
    07:00 -1°C° 0 mm 7 mps 734 mmHg 75%
    08:00 -2°C° 0 mm 7 mps 734 mmHg 74%
    09:00 -1°C° 0 mm 7 mps 734 mmHg 71%
    10:00 -1°C° 0 mm 7 mps 734 mmHg 68%
    11:00 -1°C° 0 mm 7 mps 734 mmHg 66%
    12:00 -1°C° 0 mm 7 mps 734 mmHg 66%
    13:00 0°C° 0 mm 7 mps 733 mmHg 66%
    14:00 0°C° 0 mm 7 mps 733 mmHg 65%
    15:00 -1°C° 0 mm 7 mps 733 mmHg 67%
    16:00 -1°C° 0 mm 7 mps 733 mmHg 69%
    17:00 -2°C° 0 mm 6 mps 733 mmHg 71%
    18:00 -3°C° 0 mm 7 mps 733 mmHg 69%
    19:00 -3°C° 0 mm 7 mps 733 mmHg 67%
    20:00 -3°C° 0 mm 7 mps 733 mmHg 66%
    21:00 -4°C° 0 mm 7 mps 733 mmHg 65%
    22:00 -4°C° 0 mm 7 mps 732 mmHg 65%
    23:00 -6°C° 0 mm 7 mps 732 mmHg 64%

    23 November, Saturday

    Time Temperature Precipitation Wind Pressure Humidity
    00:00 -6°C° 0 mm 7 mps 732 mmHg 65%
    01:00 -6°C° 0 mm 7 mps 732 mmHg 65%
    02:00 -6°C° 0 mm 7 mps 732 mmHg 65%
    03:00 -6°C° 0 mm 7 mps 731 mmHg 66%
    04:00 -6°C° 0 mm 7 mps 731 mmHg 67%
    05:00 -5°C° 0 mm 6 mps 731 mmHg 69%
    06:00 -5°C° 0 mm 6 mps 731 mmHg 70%
    07:00 -5°C° 0 mm 6 mps 730 mmHg 71%
    08:00 -6°C° 0 mm 7 mps 730 mmHg 73%
    09:00 -4°C° 0 mm 7 mps 730 mmHg 72%
    10:00 -4°C° 0 mm 7 mps 730 mmHg 72%
    11:00 -3°C° 0 mm 7 mps 730 mmHg 72%
    12:00 -2°C° 0 mm 7 mps 730 mmHg 72%
    13:00 -2°C° 0 mm 7 mps 729 mmHg 72%
    14:00 -1°C° 0 mm 7 mps 729 mmHg 72%
    15:00 -1°C° 0 mm 6 mps 729 mmHg 75%
    16:00 -2°C° 0 mm 6 mps 729 mmHg 78%
    17:00 -2°C° 0 mm 6 mps 729 mmHg 81%
    18:00 -2°C° 0 mm 6 mps 729 mmHg 82%
    19:00 -2°C° 0 mm 6 mps 728 mmHg 83%
    20:00 -2°C° 0 mm 6 mps 728 mmHg 84%
    21:00 -2°C° 0 mm 6 mps 728 mmHg 84%
    22:00 -2°C° 0 mm 6 mps 728 mmHg 84%
    23:00 -2°C° 0 mm 6 mps 728 mmHg 84%
    Show more